Regional Weather Roundup
Issued by NWS

Home | Current Version | Previous Version | Graphics & Text | Print | Product List | Glossary On
Versions: 1 2 3 4 5 6 7 8 9 10 11 12 13 14 15 16 17 18 19 20 21 22 23 24 25 26 27 28 29 30 31 32 33 34 35 36 37 38 39 40 41 42 43 44 45 46 47 48 49 50
500
ASUS44 KLIX 231305
RWRLA
LOUISIANA WEATHER ROUNDUP
NATIONAL WEATHER SERVICE NEW ORLEANS LA
800 AM CDT THU OCT 23 2014

NOTE: "FAIR" INDICATES FEW OR NO CLOUDS BELOW 12,000 FEET WITH NO
      SIGNIFICANT WEATHER AND/OR OBSTRUCTIONS TO VISIBILITY.
      SKY/WX - SKY CONDITION AND SIGNIFICANT WEATHER.
      TMP - AIR TEMPERATURE.    DP   - DEWPOINT TEMPERATURE.
      RH  - RELATIVE HUMIDITY.  PRES - PRESSURE.
      HX  - HEAT INDEX.         WCI  - WIND CHILL INDEX.

*  THESE STATIONS ARE NOT NWS OR FAA STATIONS AND ARE NOT UNDER
   NWS QUALITY CONTROL.

LAZ040-048-061>063-065-066-069-231400-
SOUTHEAST LOUISIANA

CITY           SKY/WX    TMP DP  RH WIND       PRES   REMARKS
N.O. AUDUBON     N/A     62  52  70 MISG        N/A
N.O. INTL ARPT PTCLDY    63  50  62 E7        30.08R
N.O. LAKEFRONT SUNNY     62  50  64 E17       30.09R
N.O. DOWNTOWN* FAIR      61  46  59 NE6       30.09R
SLIDELL        SUNNY     48  45  89 N5        30.10R
BATON ROUGE    CLEAR     52  46  80 NE6       30.11R
BOOTHVILLE     SUNNY     70  58  65 NE7       30.06R
BELLE CHASSE   MOSUNNY   59  51  75 NE6       30.08R
BOGALUSA*        N/A     49  44  85 CALM      30.13R
NEW ROADS*     FAIR      55  46  72 NE6       30.11S
GONZALES*      FAIR      52  49  90 N3        30.10R
HAMMOND*       CLEAR     54  45  71 N6        30.12R
HOUMA*         CLEAR     54  50  87 N5        30.08R
PORT FOURCHON* SUNNY     68  61  77 NE10      30.09R

$$

LAZ041-044-053-054-231400-
SOUTHWEST LOUISIANA

CITY           SKY/WX    TMP DP  RH WIND       PRES   REMARKS
LAKE CHARLES   PTCLDY    54  50  86 E6        30.10R
LAFAYETTE      CLEAR     53  50  89 NE6       30.11R
PATTERSON      CLEAR     55  54  94 NE5       30.12R
SALT POINT       N/A     58  54  86 VRB3      30.08R
NEW IBERIA     CLEAR     57  50  77 NE6       30.11R
CHENAULT AIRPK NOT AVBL

$$

LAZ027-028-231400-
CENTRAL LOUISIANA

CITY           SKY/WX    TMP DP  RH WIND       PRES   REMARKS
FORT POLK      CLOUDY    54  49  81 NE6       30.11S
ALEXANDRIA INT MOCLDY    51  48  89 CALM      30.12R
ALEXANDRIA     MOCLDY    48  47  96 CALM      30.13R

$$

LAZ001-002-231400-
NORTHWEST LOUISIANA

CITY           SKY/WX    TMP DP  RH WIND       PRES   REMARKS
SHREVEPORT     CLOUDY    57  49  74 CALM      30.16R
BARKSDALE AFB  CLOUDY    54  49  83 N3        30.17R
DTN SHREVEPORT CLOUDY    55  49  80 CALM      30.16R

$$

LAZ014-016-231400-
NORTHEAST LOUISIANA

CITY           SKY/WX    TMP DP  RH WIND       PRES   REMARKS
MONROE         MOCLDY    52  47  83 E8        30.16R
TALLULAH       MOCLDY    50  47  89 NE5       30.17R

$$




USA.gov is the U.S. government's official web portal to all federal, state and local government web resources and services.